CW3340 Weather Reports


Display with metric or nautical units.
time (UTC)temp
F
wind
direction
speed
MPH
gust
MPH
rain 1hr
in
rain 24hr
in
rain mn
in
humidity
%
barometer
mb
20181211083608 27 26 0.0 0.0 0.00 0.00 0.00 80 1022.1
20181211083108 27 26 0.0 0.0 0.00 0.00 0.00 80 1022.1
20181211082608 27 26 0.0 0.0 0.00 0.00 0.00 79 1022.2
20181211082108 27 26 0.0 0.0 0.00 0.00 0.00 79 1022.2
20181211081608 27 26 0.0 0.0 0.00 0.00 0.00 78 1022.3
20181211081108 27 26 0.0 0.0 0.00 0.00 0.00 78 1022.3
20181211080608 27 26 0.0 0.0 0.00 0.00 0.00 78 1022.4
20181211080109 27 26 0.0 0.0 0.00 0.00 0.00 78 1022.4
20181211075608 28 26 0.0 0.0 0.00 0.00 0.00 77 1022.4
20181211075108 28 26 0.0 0.0 0.00 0.00 0.00 77 1022.5
20181211074608 28 26 0.0 1.0 0.00 0.00 0.00 77 1022.5
20181211074108 28 26 0.0 3.0 0.00 0.00 0.00 77 1022.5
20181211073608 28 26 1.0 3.0 0.00 0.00 0.00 77 1022.5
20181211073108 28 40 0.0 3.0 0.00 0.00 0.00 77 1022.5
20181211072608 27 40 2.0 3.0 0.00 0.00 0.00 77 1022.5
20181211072108 28 41 1.0 3.0 0.00 0.00 0.00 77 1022.5
20181211071608 28 41 2.0 3.0 0.00 0.00 0.00 77 1022.5
20181211071109 28 41 2.0 3.0 0.00 0.00 0.00 77 1022.5
20181211070608 28 41 2.0 3.0 0.00 0.00 0.00 77 1022.5
20181211070109 28 41 2.0 3.0 0.00 0.00 0.00 77 1022.5
20181211065608 28 41 2.0 3.0 0.00 0.00 0.00 77 1022.5
20181211065108 28 41 1.0 3.0 0.00 0.00 0.00 76 1022.5
20181211064608 28 41 2.0 3.0 0.00 0.00 0.00 76 1022.5
20181211064108 28 41 0.0 3.0 0.00 0.00 0.00 76 1022.4
20181211063608 28 41 1.0 3.0 0.00 0.00 0.00 76 1022.4
20181211063108 28 41 1.0 3.0 0.00 0.00 0.00 76 1022.3
20181211062608 28 41 2.0 3.0 0.00 0.00 0.00 76 1022.3
20181211062108 28 41 1.0 2.0 0.00 0.00 0.00 75 1022.3
20181211061608 28 41 0.0 3.0 0.00 0.00 0.00 76 1022.2
20181211061108 28 41 1.0 3.0 0.00 0.00 0.00 75 1022.1
20181211060608 28 41 0.0 0.0 0.00 0.00 0.00 75 1022.2
20181211060109 28 41 0.0 0.0 0.00 0.00 0.00 74 1022.1
20181211055608 28 41 0.0 0.0 0.00 0.00 0.00 74 1022.1
20181211055108 29 41 0.0 0.0 0.00 0.00 0.00 73 1022.0
20181211054608 29 41 0.0 2.0 0.00 0.00 0.00 73 1022.1
20181211054108 29 41 0.0 2.0 0.00 0.00 0.00 73 1022.2
20181211053608 29 41 1.0 2.0 0.00 0.00 0.00 73 1022.2
20181211053108 29 41 0.0 3.0 0.00 0.00 0.00 73 1022.2
20181211052608 29 41 1.0 3.0 0.00 0.00 0.00 72 1022.2
20181211052108 29 41 0.0 2.0 0.00 0.00 0.00 72 1022.2
20181211051608 29 41 1.0 1.0 0.00 0.00 0.00 71 1022.2
20181211051108 29 41 0.0 2.0 0.00 0.00 0.00 71 1022.1
20181211050608 29 41 0.0 3.0 0.00 0.00 0.00 71 1022.1
20181211050109 29 41 0.0 3.0 0.00 0.00 0.00 71 1022.1
20181211045608 29 41 1.0 3.0 0.00 0.00 0.00 71 1022.1
20181211045108 29 41 1.0 3.0 0.00 0.00 0.00 71 1022.1
20181211044608 29 41 2.0 3.0 0.00 0.00 0.00 70 1022.1
20181211044108 30 41 3.0 3.0 0.00 0.00 0.00 70 1022.2
20181211043608 30 37 2.0 3.0 0.00 0.00 0.00 70 1022.2
20181211043108 30 38 0.0 3.0 0.00 0.00 0.00 70 1022.2
20181211042608 30 37 2.0 3.0 0.00 0.00 0.00 69 1022.2
20181211042108 30 37 2.0 6.0 0.00 0.00 0.00 70 1022.2
20181211041608 30 38 2.0 6.0 0.00 0.00 0.00 69 1022.2
20181211041108 30 35 2.0 3.0 0.00 0.00 0.00 69 1022.2
20181211040608 30 33 1.0 3.0 0.00 0.00 0.00 69 1022.2
20181211040109 30 33 2.0 3.0 0.00 0.00 0.00 69 1022.2
20181211035608 30 46 2.0 5.0 0.00 0.00 0.00 68 1022.2
20181211035108 30 54 2.0 5.0 0.00 0.00 0.00 68 1022.2
20181211034608 30 48 3.0 5.0 0.00 0.00 0.00 68 1022.1
20181211034108 31 42 2.0 5.0 0.00 0.00 0.00 68 1022.0
20181211033608 31 33 3.0 5.0 0.00 0.00 0.00 68 1022.0
20181211033108 31 42 3.0 5.0 0.00 0.00 0.00 67 1021.9
20181211032608 31 64 2.0 3.0 0.00 0.00 0.00 67 1021.9
20181211032108 31 53 2.0 3.0 0.00 0.00 0.00 67 1021.8
20181211031608 31 42 2.0 3.0 0.00 0.00 0.00 66 1021.7
20181211031108 31 57 3.0 5.0 0.00 0.00 0.00 67 1021.7
20181211030608 31 45 3.0 5.0 0.00 0.00 0.00 67 1021.6
20181211030109 31 54 3.0 6.0 0.00 0.00 0.00 67 1021.6
20181211025608 31 41 3.0 6.0 0.00 0.00 0.00 67 1021.6
20181211025108 31 35 2.0 5.0 0.00 0.00 0.00 66 1021.5
20181211024608 31 46 2.0 5.0 0.00 0.00 0.00 66 1021.6
20181211024108 31 47 2.0 7.0 0.00 0.00 0.00 66 1021.6
20181211023608 31 22 2.0 7.0 0.00 0.00 0.00 66 1021.4
20181211023108 31 22 5.0 7.0 0.00 0.00 0.00 66 1021.4
20181211022608 31 20 4.0 6.0 0.00 0.00 0.00 66 1021.5
20181211022108 31 26 3.0 6.0 0.00 0.00 0.00 66 1021.5
20181211021608 31 30 3.0 6.0 0.00 0.00 0.00 66 1021.5
20181211021108 31 23 3.0 6.0 0.00 0.00 0.00 66 1021.5
20181211020608 31 26 1.0 6.0 0.00 0.00 0.00 66 1021.5
20181211015609 31 42 2.0 5.0 0.00 0.00 0.00 66 1021.5
20181211015109 31 29 2.0 3.0 0.00 0.00 0.00 66 1021.5
20181211014609 31 29 2.0 3.0 0.00 0.00 0.00 65 1021.5
20181211014110 32 30 0.0 0.0 0.00 0.00 0.00 64 1021.6
20181211013609 32 30 0.0 0.0 0.00 0.00 0.00 64 1021.7
20181211013109 32 30 0.0 3.0 0.00 0.00 0.00 64 1021.6
20181211012609 32 20 0.0 5.0 0.00 0.00 0.00 63 1021.6
20181211012109 32 20 2.0 5.0 0.00 0.00 0.00 63 1021.4
20181211011609 32 37 1.0 3.0 0.00 0.00 0.00 63 1021.4
20181211011109 32 37 1.0 5.0 0.00 0.00 0.00 63 1021.4
20181211010609 32 41 2.0 5.0 0.00 0.00 0.00 63 1021.4
20181211010110 32 40 1.0 3.0 0.00 0.00 0.00 63 1021.4
20181211005609 32 39 2.0 3.0 0.00 0.00 0.00 63 1021.3
20181211005109 32 24 2.0 3.0 0.00 0.00 0.00 64 1021.4
20181211004609 32 26 2.0 3.0 0.00 0.00 0.00 64 1021.3
20181211004109 32 39 2.0 3.0 0.00 0.00 0.00 64 1021.3
20181211003609 32 41 3.0 3.0 0.00 0.00 0.00 64 1021.3
20181211003109 32 43 2.0 3.0 0.00 0.00 0.00 65 1021.3
20181211002609 32 34 3.0 3.0 0.00 0.00 0.00 65 1021.2
20181211002109 32 36 3.0 3.0 0.00 0.00 0.00 65 1021.2
20181211001609 32 44 3.0 3.0 0.00 0.00 0.00 65 1021.2
20181211001109 33 27 2.0 3.0 0.00 0.00 0.00 65 1021.2
20181211000609 33 27 0.0 0.0 0.00 0.00 0.00 65 1021.3
20181211000110 33 27 0.0 2.0 0.00 0.00 0.00 64 1021.2
20181210235609 33 27 0.0 3.0 0.00 0.00 0.00 64 1021.1
20181210235109 33 27 1.0 3.0 0.00 0.00 0.00 64 1021.1
20181210234609 33 27 1.0 3.0 0.00 0.00 0.00 64 1021.0
20181210234109 33 27 2.0 3.0 0.00 0.00 0.00 64 1021.0
20181210233609 33 25 1.0 3.0 0.00 0.00 0.00 64 1020.9
20181210233109 33 23 2.0 3.0 0.00 0.00 0.00 63 1021.0
20181210232609 34 23 0.0 2.0 0.00 0.00 0.00 62 1021.0
20181210232109 34 23 1.0 2.0 0.00 0.00 0.00 62 1020.9
20181210231609 34 23 0.0 2.0 0.00 0.00 0.00 61 1020.9
20181210231109 34 23 1.0 3.0 0.00 0.00 0.00 61 1020.9
20181210230610 34 23 2.0 3.0 0.00 0.00 0.00 60 1020.9
20181210230110 35 21 0.0 2.0 0.00 0.00 0.00 59 1020.9
20181210225609 35 21 0.0 2.0 0.00 0.00 0.00 59 1020.8
20181210225109 35 18 0.0 3.0 0.00 0.00 0.00 59 1020.7
20181210224609 35 18 2.0 3.0 0.00 0.00 0.00 59 1020.7
20181210224109 35 17 1.0 3.0 0.00 0.00 0.00 58 1020.6
20181210223609 35 18 2.0 3.0 0.00 0.00 0.00 58 1020.6
20181210223109 35 24 1.0 3.0 0.00 0.00 0.00 57 1020.6
20181210222609 35 24 2.0 3.0 0.00 0.00 0.00 57 1020.5
20181210222109 35 18 2.0 3.0 0.00 0.00 0.00 57 1020.5
20181210221609 36 4 1.0 3.0 0.00 0.00 0.00 57 1020.4
20181210221109 36 2 2.0 5.0 0.00 0.00 0.00 56 1020.4
20181210220609 36 1 2.0 5.0 0.00 0.00 0.00 55 1020.4
20181210220110 36 353 2.0 3.0 0.00 0.00 0.00 55 1020.3
20181210215609 36 358 2.0 8.0 0.00 0.00 0.00 55 1020.3
20181210215109 36 352 3.0 8.0 0.00 0.00 0.00 55 1020.3
20181210214609 37 331 3.0 8.0 0.00 0.00 0.00 55 1020.2
20181210214109 37 18 2.0 7.0 0.00 0.00 0.00 54 1020.1
20181210213609 37 332 2.0 12.0 0.00 0.00 0.00 54 1020.1
20181210213109 37 337 3.0 12.0 0.00 0.00 0.00 54 1020.1
20181210212609 37 4 2.0 8.0 0.00 0.00 0.00 54 1020.1
20181210212109 37 300 5.0 12.0 0.00 0.00 0.00 54 1020.1
20181210211609 37 355 2.0 12.0 0.00 0.00 0.00 54 1020.0
20181210211109 37 326 4.0 12.0 0.00 0.00 0.00 54 1020.0
20181210210609 38 13 3.0 12.0 0.00 0.00 0.00 54 1020.0
20181210210110 38 322 6.0 12.0 0.00 0.00 0.00 54 1019.9
20181210205609 38 349 3.0 12.0 0.00 0.00 0.00 54 1019.9
20181210205110 38 336 7.0 12.0 0.00 0.00 0.00 54 1019.8
20181210204609 38 347 3.0 12.0 0.00 0.00 0.00 53 1019.7
20181210204111 38 347 4.0 10.0 0.00 0.00 0.00 53 1019.6
20181210203609 38 13 2.0 10.0 0.00 0.00 0.00 53 1019.5
20181210203109 38 298 4.0 13.0 0.00 0.00 0.00 53 1019.4
20181210202609 38 358 6.0 13.0 0.00 0.00 0.00 53 1019.4
20181210202109 39 5 5.0 12.0 0.00 0.00 0.00 52 1019.4
20181210201609 39 352 4.0 12.0 0.00 0.00 0.00 52 1019.4
20181210201109 39 24 6.0 12.0 0.00 0.00 0.00 52 1019.4
20181210200609 39 355 3.0 14.0 0.00 0.00 0.00 52 1019.4
20181210200110 39 8 3.0 14.0 0.00 0.00 0.00 52 1019.4
20181210195609 39 15 3.0 12.0 0.00 0.00 0.00 52 1019.4
20181210195109 39 355 5.0 12.0 0.00 0.00 0.00 52 1019.5
20181210194609 40 335 3.0 12.0 0.00 0.00 0.00 51 1019.4
20181210194109 40 24 3.0 14.0 0.00 0.00 0.00 51 1019.5
20181210193609 40 24 7.0 14.0 0.00 0.00 0.00 50 1019.5
20181210193109 40 8 3.0 14.0 0.00 0.00 0.00 50 1019.5
20181210192609 40 17 7.0 14.0 0.00 0.00 0.00 50 1019.5
20181210192109 40 36 7.0 12.0 0.00 0.00 0.00 50 1019.4
20181210191609 40 33 7.0 12.0 0.00 0.00 0.00 51 1019.4
20181210191109 40 352 3.0 10.0 0.00 0.00 0.00 51 1019.4
20181210190609 40 354 5.0 13.0 0.00 0.00 0.00 51 1019.5
20181210190110 40 44 6.0 15.0 0.00 0.00 0.00 51 1019.4
20181210185609 40 39 6.0 15.0 0.00 0.00 0.00 50 1019.4
20181210185109 39 39 6.0 13.0 0.00 0.00 0.00 51 1019.5
20181210184609 39 349 5.0 13.0 0.00 0.00 0.00 51 1019.5
20181210184109 39 14 6.0 15.0 0.00 0.00 0.00 52 1019.5
20181210183609 40 25 10.0 15.0 0.00 0.00 0.00 51 1019.4
20181210183109 40 24 6.0 10.0 0.00 0.00 0.00 52 1019.4
20181210182609 40 7 8.0 10.0 0.00 0.00 0.00 51 1019.4
20181210182109 40 33 6.0 9.0 0.00 0.00 0.00 52 1019.4
20181210181609 40 51 5.0 10.0 0.00 0.00 0.00 52 1019.4
20181210181109 39 20 3.0 12.0 0.00 0.00 0.00 52 1019.5
20181210180609 39 13 5.0 14.0 0.00 0.00 0.00 54 1019.5
20181210180110 39 316 5.0 14.0 0.00 0.00 0.00 54 1019.6
20181210175609 39 29 7.0 14.0 0.00 0.00 0.00 54 1019.6
20181210175109 39 55 6.0 13.0 0.00 0.00 0.00 55 1019.6
20181210174609 39 9 8.0 13.0 0.00 0.00 0.00 54 1019.5
20181210174109 39 36 4.0 13.0 0.00 0.00 0.00 54 1019.5
20181210173609 38 27 7.0 14.0 0.00 0.00 0.00 54 1019.6
20181210173109 38 341 8.0 14.0 0.00 0.00 0.00 54 1019.6
20181210172609 39 341 5.0 16.0 0.00 0.00 0.00 55 1019.6
20181210172109 38 32 7.0 16.0 0.00 0.00 0.00 55 1019.6
20181210171609 38 34 7.0 14.0 0.00 0.00 0.00 54 1019.6
20181210171109 39 30 8.0 13.0 0.00 0.00 0.00 53 1019.6
20181210170609 39 56 6.0 14.0 0.00 0.00 0.00 53 1019.7
20181210170110 39 56 6.0 14.0 0.00 0.00 0.00 52 1019.7
20181210165609 38 33 9.0 14.0 0.00 0.00 0.00 51 1019.7
20181210165109 39 38 6.0 13.0 0.00 0.00 0.00 52 1019.7
20181210164609 38 19 7.0 14.0 0.00 0.00 0.00 53 1019.8
20181210164109 38 28 6.0 16.0 0.00 0.00 0.00 53 1019.9
20181210163609 38 17 7.0 17.0 0.00 0.00 0.00 53 1019.9
20181210163109 38 26 9.0 17.0 0.00 0.00 0.00 53 1020.0
20181210162609 38 41 10.0 16.0 0.00 0.00 0.00 53 1020.0
20181210162109 38 54 9.0 15.0 0.00 0.00 0.00 53 1020.0
20181210161609 38 35 9.0 18.0 0.00 0.00 0.00 53 1020.1
20181210161109 37 43 7.0 18.0 0.00 0.00 0.00 53 1020.2
20181210160609 37 55 10.0 20.0 0.00 0.00 0.00 54 1020.4
20181210160110 37 39 12.0 22.0 0.00 0.00 0.00 54 1020.4
20181210155609 37 34 11.0 22.0 0.00 0.00 0.00 53 1020.4
20181210155109 37 39 12.0 20.0 0.00 0.00 0.00 53 1020.5
20181210154609 37 45 12.0 20.0 0.00 0.00 0.00 54 1020.6
20181210154109 37 45 10.0 21.0 0.00 0.00 0.00 54 1020.5
20181210153609 37 25 11.0 21.0 0.00 0.00 0.00 55 1020.6
20181210153109 37 10 7.0 16.0 0.00 0.00 0.00 55 1020.6
20181210152609 37 45 7.0 20.0 0.00 0.00 0.00 56 1020.7
20181210152109 37 44 8.0 20.0 0.00 0.00 0.00 56 1020.8
20181210151609 36 21 6.0 20.0 0.00 0.00 0.00 57 1020.7
20181210151109 36 59 13.0 20.0 0.00 0.00 0.00 57 1020.7
20181210150609 36 37 9.0 24.0 0.00 0.00 0.00 58 1020.8
20181210150110 36 30 10.0 24.0 0.00 0.00 0.00 58 1020.8
20181210145609 36 32 12.0 18.0 0.00 0.00 0.00 59 1020.8
20181210145109 36 38 7.0 18.0 0.00 0.00 0.00 59 1020.7
20181210144609 36 44 11.0 18.0 0.00 0.00 0.00 59 1020.6
20181210144109 36 39 11.0 17.0 0.00 0.00 0.00 60 1020.6
20181210143609 36 28 9.0 17.0 0.00 0.00 0.00 61 1020.6
20181210143109 35 37 9.0 17.0 0.00 0.00 0.00 61 1020.6
20181210142609 35 30 10.0 17.0 0.00 0.00 0.00 62 1020.5
20181210142109 35 26 9.0 16.0 0.00 0.00 0.00 62 1020.5
20181210141609 35 48 7.0 15.0 0.00 0.00 0.00 63 1020.4
20181210141109 35 46 7.0 15.0 0.00 0.00 0.00 64 1020.4
20181210140609 34 35 7.0 15.0 0.00 0.00 0.00 64 1020.4
20181210140110 34 31 5.0 16.0 0.00 0.00 0.00 65 1020.3
20181210135609 34 21 7.0 16.0 0.00 0.00 0.00 66 1020.3
20181210135109 34 29 9.0 16.0 0.00 0.00 0.00 66 1020.2
20181210134609 33 28 9.0 15.0 0.00 0.00 0.00 67 1020.2
20181210134109 33 32 10.0 15.0 0.00 0.00 0.00 68 1020.1
20181210133608 33 22 5.0 12.0 0.00 0.00 0.00 68 1020.1
20181210133109 33 27 6.0 9.0 0.00 0.00 0.00 69 1020.0
20181210132608 33 52 5.0 9.0 0.00 0.00 0.00 70 1020.0
20181210132108 32 21 4.0 9.0 0.00 0.00 0.00 70 1019.9
20181210131608 32 46 3.0 7.0 0.00 0.00 0.00 71 1019.9
20181210131108 32 30 6.0 7.0 0.00 0.00 0.00 72 1019.9
20181210130608 31 23 5.0 10.0 0.00 0.00 0.00 72 1019.8
20181210130110 31 26 5.0 10.0 0.00 0.00 0.00 73 1019.8
20181210125608 31 27 4.0 10.0 0.00 0.00 0.00 74 1019.7
20181210125109 30 18 5.0 9.0 0.00 0.00 0.00 74 1019.7
20181210124609 30 36 3.0 9.0 0.00 0.00 0.00 75 1019.6
20181210124108 29 23 3.0 9.0 0.00 0.00 0.00 75 1019.7
20181210123608 29 35 4.0 7.0 0.00 0.00 0.00 76 1019.6
20181210123108 29 37 3.0 6.0 0.00 0.00 0.00 76 1019.6
20181210122608 28 22 2.0 6.0 0.00 0.00 0.00 76 1019.5
20181210122108 28 31 4.0 6.0 0.00 0.00 0.00 76 1019.5
20181210121608 28 23 3.0 7.0 0.00 0.00 0.00 76 1019.5
20181210121108 28 23 4.0 7.0 0.00 0.00 0.00 76 1019.5
20181210120608 28 19 3.0 6.0 0.00 0.00 0.00 77 1019.5
20181210120110 28 35 4.0 6.0 0.00 0.00 0.00 77 1019.5
20181210115609 28 14 3.0 6.0 0.00 0.00 0.00 77 1019.6
20181210115109 28 4 3.0 6.0 0.00 0.00 0.00 77 1019.5
20181210114608 28 52 2.0 6.0 0.00 0.00 0.00 77 1019.5
20181210114109 28 42 2.0 6.0 0.00 0.00 0.00 77 1019.4
20181210113609 27 26 3.0 6.0 0.00 0.00 0.00 77 1019.3
20181210113108 27 26 2.0 6.0 0.00 0.00 0.00 77 1019.3
20181210112608 27 18 2.0 6.0 0.00 0.00 0.00 77 1019.3
20181210112108 27 46 2.0 5.0 0.00 0.00 0.00 77 1019.3
20181210111608 27 35 2.0 5.0 0.00 0.00 0.00 76 1019.2
20181210111108 27 30 2.0 3.0 0.00 0.00 0.00 76 1019.1
20181210110608 27 35 3.0 5.0 0.00 0.00 0.00 76 1019.2
20181210110109 27 33 4.0 5.0 0.00 0.00 0.00 76 1019.2
20181210105609 27 22 3.0 5.0 0.00 0.00 0.00 76 1019.2
20181210105109 27 34 3.0 3.0 0.00 0.00 0.00 77 1019.1
20181210104609 27 26 3.0 3.0 0.00 0.00 0.00 76 1019.1
20181210104109 27 32 2.0 3.0 0.00 0.00 0.00 76 1019.0
20181210103609 27 27 2.0 3.0 0.00 0.00 0.00 76 1019.0
20181210103109 27 36 2.0 3.0 0.00 0.00 0.00 75 1019.0
20181210102609 27 35 1.0 3.0 0.00 0.00 0.00 75 1018.9
20181210102109 27 35 2.0 5.0 0.00 0.00 0.00 75 1018.8
20181210101609 27 34 2.0 5.0 0.00 0.00 0.00 74 1018.8
20181210101109 28 37 2.0 5.0 0.00 0.00 0.00 74 1018.7
20181210100609 28 43 2.0 9.0 0.00 0.00 0.00 74 1018.7
20181210100110 27 41 3.0 9.0 0.00 0.00 0.00 74 1018.7
20181210095609 27 30 2.0 3.0 0.00 0.00 0.00 74 1018.6
20181210095109 27 22 3.0 5.0 0.00 0.00 0.00 74 1018.6
20181210094610 27 3 3.0 5.0 0.00 0.00 0.00 74 1018.6
20181210094109 27 23 2.0 5.0 0.00 0.00 0.00 74 1018.6
20181210093609 27 18 3.0 5.0 0.00 0.00 0.00 74 1018.6
20181210093110 27 19 2.0 6.0 0.00 0.00 0.00 74 1018.6
20181210092609 27 32 1.0 6.0 0.00 0.00 0.00 73 1018.7
20181210092109 27 17 3.0 6.0 0.00 0.00 0.00 73 1018.7
20181210091609 27 10 3.0 5.0 0.00 0.00 0.00 73 1018.8
20181210091109 28 41 2.0 3.0 0.00 0.00 0.00 72 1018.8
20181210090609 28 31 2.0 5.0 0.00 0.00 0.00 72 1018.8
20181210090110 28 15 2.0 5.0 0.00 0.00 0.00 72 1018.8
20181210085609 28 47 2.0 6.0 0.00 0.00 0.00 72 1018.8
20181210085109 28 44 3.0 6.0 0.00 0.00 0.00 72 1018.7
20181210084609 28 26 2.0 5.0 0.00 0.00 0.00 72 1018.7
20181210084109 28 35 3.0 7.0 0.00 0.00 0.00 72 1018.8